• Join FlightAware (Why Join?)
  • Login
  • US Flag 
08:57AM EDT


 

Airport Tracker/Info


-or-


 

Live Flight TrackerFlight Track Log ✈ BOE1 ✈ 06-May-2013 ✈ KBFI - KPAE

Flight Track Log - Related Links

Times and Time Zones

All times are in EDT time to prevent confusion due to time zone crossing. See the BOE1 flight status page for this flight to view local times or setup timezone preferences in your user account.

Time Position Orientation Groundspeed Altitude Reporting Facility
EDT Latitude Longitude Course Direction KTS MPH feet Rate Location/Type
08:57PM 47.5986 -122.3678 330° Northwest 214 246 2,400  Level Seattle Center
08:58PM 47.6497 -122.4119 330° Northwest 214 246 3,100  Climbing Seattle Center
09:00PM 47.7098 -122.3816 North  Level Estimated
09:01PM 47.7975 -122.3369 10° North 211 243 2,500  Level Seattle Center
09:02PM 47.8044 -122.3261 46° Northeast 209 241 2,400 -1,140 Descending Seattle Center
09:02PM 47.8314 -122.2950 38° Northeast 169 194 1,500 -1,020 Descending Seattle Center
09:03PM 47.8511 -122.2842 20° North 162 186 1,400 -480 Descending Seattle Center
09:04PM 47.8892 -122.2850 359° North 139 160 800 60 Descending Seattle Center
09:04PM 47.9069 -122.2861 358° North 123 142 1,500 1,860 Climbing Seattle Center
09:05PM 47.9292 -122.2867 359° North 149 171 2,700 1,080 Climbing Seattle Center
09:05PM 47.9583 -122.3400 309° West 231 266 3,000 240 Climbing Seattle Center
09:06PM 47.9556 -122.3494 246° West 204 235 3,000  Level Seattle Center
09:07PM 47.9000 -122.2667 10° North  Level FlightAware Approximate
09:07PM 47.9078 -122.3683 195° South 207 238 3,000  Level Seattle Center
09:07PM 47.8608 -122.3678 180° South 200 230 2,600 -540 Descending Seattle Center
09:08PM 47.8508 -122.3558 141° Southeast 200 230 2,400 -960 Descending Seattle Center
09:09PM 47.8511 -122.2942 90° East 162 186 1,300 -840 Descending Seattle Center
09:09PM 47.8781 -122.2856 12° North 133 153 1,000 -540 Descending Seattle Center
09:10PM 47.8867 -122.2850 North 135 155 800 840 Descending Seattle Center
09:10PM 47.9069 -122.2861 358° North 145 167 1,600 1,620 Climbing Seattle Center
09:11PM 47.9394 -122.2900 355° North 168 193 2,500 660 Climbing Seattle Center
09:11PM 47.9539 -122.3394 294° West 234 269 2,500  Level Seattle Center
09:12PM 47.9447 -122.3667 243° Southwest 219 252 2,500  Level Seattle Center
09:13PM 47.9017 -122.3881 198° South 235 270 2,500  Level Seattle Center
09:13PM 47.8889 -122.3853 172° South 221 254 2,500 360 Level Seattle Center
09:13PM 47.8486 -122.3811 176° South 225 259 2,800 1,260 Climbing Seattle Center
09:14PM 47.8369 -122.3503 119° Southeast 225 259 3,800 1,140 Climbing Seattle Center
09:14PM 47.8236 -122.2994 111° Southeast 224 258 4,000 360 Climbing Seattle Center
09:15PM 47.8056 -122.2633 127° Southeast 221 254 4,200 180 Climbing Seattle Center
09:15PM 47.7797 -122.2314 140° Southeast 222 255 4,200  Level Seattle Center
09:16PM 47.7578 -122.2039 140° Southeast 222 255 4,200  Level Seattle Center
09:16PM 47.7300 -122.1667 138° Southeast 222 255 4,200  Level Seattle Center
09:17PM 47.7103 -122.1461 145° Southeast 222 255 4,200  Level Seattle Center
09:17PM 47.6775 -122.1169 149° Southeast 223 257 4,200  Level Seattle Center
09:18PM 47.6561 -122.1011 153° Southeast 222 255 4,200 -180 Level Seattle Center
09:19PM 47.5986 -122.0972 177° South 214 246 4,000 -480 Descending Seattle Center
09:19PM 47.5672 -122.1125 198° South 221 254 3,500 -900 Descending Seattle Center
09:20PM 47.5411 -122.1303 205° Southwest 221 254 3,100 -1,020 Descending Seattle Center
09:20PM 47.5097 -122.1575 210° Southwest 214 246 2,500 -900 Descending Seattle Center
09:21PM 47.4881 -122.1825 218° Southwest 212 244 2,200 -600 Descending Seattle Center
09:21PM 47.4669 -122.2075 219° Southwest 193 222 1,900 -600 Descending Seattle Center
09:22PM 47.4617 -122.2392 256° West 180 207 1,600 -900 Descending Seattle Center
09:22PM 47.4756 -122.2586 317° Northwest 128 147 1,000 -900 Descending Seattle Center
09:23PM 47.4900 -122.2706 331° Northwest 131 151 700 -600 Descending Seattle Center
09:23PM 47.5064 -122.2842 331° Northwest 125 144 400 -600 Descending Seattle Center